Regional Weather Roundup
Issued by NWS Spokane, WA

Home | Current Version | Previous Version | Text Only | Print | Product List | Glossary On
Versions: 1 2 3 4 5 6 7 8 9 10 11 12 13 14 15 16 17 18 19 20 21 22 23 24 25 26 27 28 29 30 31 32 33 34 35 36 37 38 39 40 41 42 43 44 45 46 47 48 49 50
000
NZUS01 KOTX 161125
RWROTX

Eastern Washington/Northern Idaho Roundup
National Weather Service, Spokane WA
300 AM PST MON JAN 16 2017

Note: "fair" indicated few or no clouds below 12,000 feet with no
significant weather and/or obstructions to visibility.

...Northeast Washington and Northern Idaho Panhandle...

CITY           SKY/WX    TMP DP  RH WIND       PRES   REMARKS
Spokane Intl   MOCLDY     0  -5  79 S5        30.38F WCI -10
Spokane Downto CLOUDY     5   1  83 S3        30.45F
Coeur d Alene  FOG        9   6  88 CALM      30.41F VSB 1/4
Deer Park      CLOUDY     0  -4  83 CALM      30.41F
Sandpoint      CLOUDY    16  14  93 CALM      30.40F
Bonners Ferry  CLOUDY    16  12  86 CALM      30.39F

...Southeast Washington and southern Idaho Panhandle...

CITY           SKY/WX    TMP DP  RH WIND       PRES   REMARKS
Walla Walla    CLOUDY    11   6  81 MISG      30.50F
Pullman/Moscow CLOUDY    -3  -6  87 CALM      30.38F
Lewiston       CLOUDY    11   9  92 E5        30.50S WCI   3
Lowell           N/A      8   4  83 CALM      30.52R
Grangeville    FAIR       3   1  92 CALM      30.32S

...Columbia Basin...

CITY           SKY/WX    TMP DP  RH WIND       PRES   REMARKS
Ephrata        CLOUDY    10   4  76 CALM      30.50S HAZE
Moses Lake     CLOUDY    10   5  80 S3        30.51F
Pasco          FLURRIES  12   9  87 CALM      30.60F
Richland       LGT SNOW  14  11  90 CALM      30.60S
Hermiston      CLOUDY    10   5  80 S6        30.56F HAZE    WCI   0
Pendleton      CLOUDY     3  -1  83 SE6       30.47F WCI  -8

...East Slopes Cascades...

CITY           SKY/WX    TMP DP  RH WIND       PRES   REMARKS
The Dalles     CLOUDY    12   6  77 CALM      30.61R
Yakima         CLOUDY    15  11  83 CALM      30.52R FOG
Ellensburg     CLOUDY    15   9  76 SE5       30.44R WCI   8
Stampede Pass  CLOUDY     6   5  95 E7        30.21R FOG     WCI  -6
Wenatchee      CLOUDY    13  10  88 SE7       30.49S WCI   3
Omak           CLOUDY    19  13  77 SE5       30.47R WCI  12
Sunnyside      LGT SNOW  11   8  87 CALM      30.56R

...Southern British Columbia...

CITY           SKY/WX    TMP DP  RH WIND       PRES   REMARKS
Penticton      MOCLDY    23  16  74 S15G21    30.43F WCI  10
Cranbrook      MOCLDY     0  -6  78 CALM      30.36F
Osoyoos          N/A     21  16  79 S6          N/A  WCI  14
Creston          N/A     18  10  73 E7          N/A  WCI   8

...Western Montana...

CITY           SKY/WX    TMP DP  RH WIND       PRES   REMARKS
Kalispell      CLOUDY    12   8  84 W3        30.38R
Missoula       PTCLDY    -5  -9  83 CALM      30.40R

...Neighboring Cities...

CITY           SKY/WX    TMP DP  RH WIND       PRES   REMARKS
Seattle        PTCLDY    33  28  81 CALM      30.25S
Portland       CLOUDY    23  14  68 SE10      30.32S WCI  12
Boise          CLEAR      1  -4  79 CALM      30.43S HAZE
Great Falls    CLEAR     23   9  55 S17       30.12R WCI   9
Calgary        PTCLDY    28  12  50 SE6       29.97F WCI  22



USA.gov is the U.S. government's official web portal to all federal, state and local government web resources and services.